DMSP 5D-2 F13 DEB, 40414

Orbit data source: Space-Track

DMSP 5D-2 F13 DEB, 40414 is space debris in SSO originally from a launch on Fri, 24 Mar 1995 UTC launched from the Air Force Western Test Range (AFWTR). Debris objects in space refer to the collection of defunct objects orbiting the Earth. Examples of debris include non-operational satellites, rocket bodies, and fragments generated from explosions, collisions, or faulty payload assembly.

Loading next visibility...
Identifier
40414, 1995-015AB
Orbit
SSO
Country
Flag of USUS
Related business
Manufacturer
Unknown
Mission
Spacecraft
Bus & Motor
Unknown
Mass
Unknown
Launch date (UTC)
1995-03-24 (31 years ago)
Launch vehicle
Unknown
Launch site
Air Force Western Test Range (AFWTR)
Object type
Payload
Rocket body
Debris
Shape & HBR
Unknown shape, 0.1 m
Radar Cross Section
Small (<0.1 m²)

Expand to show TLE details & history
Last TLE update: 11 hours ago

TLE from 11 hours ago
0 DMSP 5D-2 F13 DEB
1 40414U 95015AB  26073.55853476  .00002857  00000-0  10770-2 0  9993
2 40414  98.6328 102.1537 0011612 194.7595 165.3251 14.32143835573733
Epoch: 2026-03-14T13:24Z
TLE epoch observation values (Epoch: 2026-03-14T13:24:17.403Z)
Latitude
-0.00001°
Longitude
88.9032°
Altitude
795.556 km
Speed
7.452 km/s
True Right ascension
06h 48m 36s
True Declination
0° 00' 00"
Sunlit
Object was in daylight at epoch
Visualization orbit readout
Latitude
Unknown
Longitude
Unknown
Altitude
Unknown
Speed
Unknown
Apparent Right ascension
Unknown
Apparent Declination
Unknown
Sunlit
N/A
Visualization observer readout
Local Sidereal Time
04:32:46
Azimuth
Unknown
Elevation
Unknown
Doppler factor
Unknown
Orbital elements
Apogee altitude
790.026 km
Perigee altitude
773.398 km
Semi-major axis
7,159.849 km
Eccentricity
0.00116
Inclination
98.6328°
RAAN
102.1537°
Arg. of periapsis
194.7595°
True anomaly
165.35876°
Mean anomaly
165.3251°
Eccentric anomaly
165.34194°
Mean motion
3.58251 °/min
Orbital period
100.49 mins
BSTAR
0.001077

Documentation

Showing up to 5 results
|